Regional Weather Roundup
Issued by NWS Sterling, VA

Home | Current Version | Previous Version | Text Only | Print | Product List | Glossary On
Versions: 1 2 3 4 5 6 7 8 9 10 11 12 13 14 15 16 17 18 19 20 21 22 23 24 25 26 27 28 29 30 31 32 33 34 35 36 37 38 39 40 41 42 43 44 45 46 47 48 49 50
000
ASUS41 KLWX 201311
RWRLWX

REGIONAL WEATHER ROUNDUP
NATIONAL WEATHER SERVICE BALTIMORE MD/WASHINGTON DC
800 AM EST SAT JAN 20 2018

Note: "FAIR" indicates few or no clouds below 12,000 feet
with no significant weather and/or obstructions to visibility.
 TC=TEMPERATURE CELSIUS

 * =Non NWS site. Station does not report precipitation (e.g. rain,
    snow, etc.), thunder, or fog.

DCZ001-MDZ009-015-VAZ040>042-051-053>054-201400-
WASHINGTON METRO

CITY           SKY/WX    TMP DP  RH WIND       PRES   REMARKS
WASHINGTON NAT FAIR      29  23  78 S6        30.03R WCI  23
DULLES         FAIR      23  17  78 CALM      30.01R
ANDREWS AFB    FAIR      28  15  56 SW6       30.00R WCI  22
FT BELVOIR     FAIR      22  17  82 CALM        N/A
COLLEGE PARK*  FAIR      22  18  85 CALM      30.01R
LEESBURG*      FAIR      34  18  51 W3        30.01R
MANASSAS*      FAIR      21  18  88 CALM      30.02R
GAITHERSBURG*  FAIR      28  17  63 CALM      30.00R

$$

MDZ006>007-011-014-201400-
BALTIMORE METRO

CITY           SKY/WX    TMP DP  RH WIND       PRES   REMARKS
BWI AIRPORT    FAIR      31  17  56 W3        30.00R
MD SCIENCE CTR   N/A     34  17  50 MISG      30.00R
MARTIN STATE   PTCLDY    27  25  93 CALM      30.02R
ANNAPOLIS      FAIR      31  24  75 CALM      30.01R
FORT MEADE*    FAIR      21  19  93 CALM      30.03R

$$

MDZ012-015-019>023-201400-
MARYLAND EASTERN SHORE

CITY           SKY/WX    TMP DP  RH WIND       PRES   REMARKS
OCEAN CITY     FAIR      35  20  54 SW8       30.04R WCI  29
SALISBURY      FAIR      31  21  66 SW7       30.03S WCI  24
BAY BRIDGE AP* FAIR      34  14  44 S5        30.01R WCI  30
CAMBRIDGE*     CLEAR     28  19  69 S6        30.02S WCI  22
EASTON*        CLEAR     30  18  59 SW5       30.05R WCI  25

$$

MDZ017>025-201400-
SOUTHERN MARYLAND

CITY           SKY/WX    TMP DP  RH WIND       PRES   REMARKS
PATUXENT RIVER PTCLDY    33  14  45 SW7       30.03  WCI  27
ST INIGOES     FAIR      31  18  58 S5        30.03S WCI  26
LEONARDTOWN*   FAIR      36  12  38 SW9       30.04S WCI  29

$$

MDZ003>005-201400-
NORTH CENTRAL MARYLAND

CITY           SKY/WX    TMP DP  RH WIND       PRES   REMARKS
FREDERICK*     CLEAR     41  14  33 SW8       30.02R
HAGERSTOWN APT FAIR      39  23  52 S8        29.98R WCI  33
WESTMINSTER*   FAIR      39  27  60 SW9       29.96S WCI  33

$$

MDZ501>502-201400-
WESTERN MARYLAND

CITY           SKY/WX    TMP DP  RH WIND       PRES   REMARKS
OAKLAND*       FAIR      32  28  86 W18G36    29.98R WCI  20
CUMBERLAND*    FAIR      46  32  57 W13G21    30.05R

$$

VAZ025>031-201400-
SHENANDOAH VALLEY

CITY           SKY/WX    TMP DP  RH WIND       PRES   REMARKS
WINCHESTER*    FAIR      34  10  37 SW5       30.01S WCI  30
FRONT ROYAL*   FAIR      41  12  30 S7        29.99R
LURAY*         FAIR      37  19  48 SW8       30.02R WCI  31
NEW MARKET*    FAIR      35  15  43 W6        30.02R WCI  30
STAUNTON*      FAIR      40  28  61 S13       30.07R WCI  32
WAYNESBORO*    FAIR      41  29  62 SW13G23   30.05S WCI  34

$$

WVZ021-048>050-054>055-201400-
EASTERN WEST VIRGINIA PANHANDLE

CITY           SKY/WX    TMP DP  RH WIND       PRES   REMARKS
MARTINSBURG    FAIR      42  28  57 SW10G20   29.98R
PETERSBURG*    NOT AVBL

$$

VAZ036>039-050-201400-
CENTRAL FOOTHILLS

CITY           SKY/WX    TMP DP  RH WIND       PRES   REMARKS
CHARLOTTESVILL FAIR      47  26  44 VRB6      30.02R
CULPEPER*      FAIR      20  15  81 CALM      30.03R
ORANGE*        FAIR      30  14  51 CALM      30.02S
GORDONSVILLE*  FAIR      28  17  63 CALM      30.02S
WARRENTON*     FAIR      20  15  79 CALM      30.01R

$$

VAZ055>057-201400-
NORTH AND CENTRAL PIEDMONT

CITY           SKY/WX    TMP DP  RH WIND       PRES   REMARKS
FREDERICKSBRG* FAIR      24  20  82 CALM      30.02S
STAFFORD*      FAIR      23  17  75 CALM      30.06R HAZE

$$

NCZ024-NYZ072-PAZ021-071-VAZ022-071-201400-
OTHER REGIONAL OBSERVATIONS

CITY           SKY/WX    TMP DP  RH WIND       PRES   REMARKS
NEW YORK CITY  FAIR      40  21  46 W10G21    29.89R WCI  33
PHILADELPHIA   MOCLDY    34  21  59 W10       29.97R WCI  26
PITTSBURGH     MOCLDY    36  23  59 SW14G20   30.00R WCI  27
ROANOKE        FAIR      39  23  52 NW3       30.16R
RICHMOND       FAIR      34  12  40 SW5       30.06R WCI  30
RALEIGH        FAIR      26  21  81 W6        30.16R WCI  19

$$

ANZ530>537-201400-
MARINE OBSERVATIONS

STATION/POSITION TIME  TEMP    WIND        PRES
                       AIR SEA DIR/SP/G
                 (UTC) (F)     (DEG/KT/KT) (MB)
THOMAS PT LIGHT  1300   35 32  220/  7/  7   N/A
BALT KEY BRIDGE  1248   34     230/  8/  9 1015.9R
COVE POINT       1248   36     180/  7/  9 1017.2S
LEWISETTA        1248   39 32  270/  6/  7 1017.2R
SOLOMONS ISLAND  1248   37 34  230/  5/  7 1016.5S
PINEY POINT      1248          310/  3/  4   N/A

$$




USA.gov is the U.S. government's official web portal to all federal, state and local government web resources and services.